SCP
1 1 1 1 1 1 1 1 1 1 0 0 1 1 1 1 1 1 1 1 0 0 0 0 0 0 0 0 0 0 0 0 0 0 0 0 0 0 0 0 0 0 0
1 1 1 0 0 0 1 1 1 1 1 0 1 1 1 1 1 1 1 1 0 0 0 0 0 0 0 0 0 0 0 0 0 0 0 0 0 0 0 0 0 0 0
1 1 0 0 0 0 0 1 1 1 1 0 0 0 0 1 1 1 1 1 0 0 0 0 0 0 0 0 0 0 0 0 0 0 0 0 0 0 0 0 0 0 0
1 1 0 0 0 0 0 1 1 1 1 1 0 0 0 0 1 1 1 1 0 0 0 0 0 0 0 0 0 0 0 0 0 0 0 0 0 0 0 0 0 0 0
0 0 0 0 0 0 1 1 1 1 1 1 1 0 0 0 1 1 1 0 0 0 0 0 0 0 0 0 0 0 0 0 0 0 0 0 0 0 0 0 0 0 0
0 0 0 1 1 1 1 1 1 1 1 1 1 1 1 1 1 1 1 1 0 0 0 0 0 0 0 0 0 0 0 0 0 0 0 0 0 0 0 0 0 0 0
0 0 0 1 1 1 1 1 1 1 1 1 1 1 1 1 1 1 1 1 0 1 1 1 1 1 0 0 0 0 0 0 0 0 0 0 0 0 0 0 0 0 0
0 0 1 1 1 1 1 1 1 2 1 1 1 1 1 1 1 1 1 1 0 1 1 1 1 1 1 0 0 0 0 0 0 0 0 0 0 0 0 0 0 0 0
0 1 1 1 1 1 1 1 2 2 2 1 1 1 1 1 1 1 1 1 1 1 1 1 1 1 1 0 0 0 0 0 0 0 0 0 0 0 0 0 0 0 0
0 1 1 1 1 1 1 1 1 2 2 2 1 1 1 1 1 1 1 1 1 1 1 1 1 1 1 1 0 0 0 0 0 0 0 0 0 0 0 0 0 0 0
1 1 1 1 1 1 1 1 1 2 2 2 2 1 1 1 1 1 1 1 1 1 1 1 1 1 1 1 0 0 0 0 0 0 0 0 0 0 0 0 0 0 0
1 1 1 1 1 1 1 1 1 1 2 2 2 1 1 1 1 1 1 1 1 1 1 1 1 1 1 0 0 0 0 0 0 0 0 0 0 0 0 0 0 0 0
1 1 1 1 1 1 1 1 1 1 1 1 1 1 1 1 1 1 1 1 1 1 1 1 1 1 1 0 0 0 0 0 0 0 0 0 0 0 0 0 0 0 0
1 1 1 1 1 1 1 1 1 1 1 1 1 1 1 1 1 1 1 1 1 1 1 1 1 1 1 0 0 0 0 0 0 0 0 0 0 0 0 0 0 0 0
1 1 1 1 1 1 1 1 1 1 1 1 1 1 1 1 1 1 1 1 1 1 1 1 1 1 0 0 0 0 0 0 0 0 0 0 0 0 0 0 0 0 0
1 1 1 2 2 2 1 1 1 1 1 1 1 1 1 1 1 1 1 1 1 1 1 1 1 0 0 0 0 0 0 0 0 0 0 0 0 0 0 0 0 0 0
1 1 1 2 2 1 1 1 1 1 1 1 1 1 1 1 1 1 1 1 1 1 1 1 1 0 0 0 0 0 0 0 0 0 0 0 0 0 0 0 0 0 0
1 1 1 1 1 1 1 1 1 1 1 1 1 1 1 1 1 1 1 1 1 1 1 1 1 0 0 0 0 0 0 0 0 0 0 0 0 0 0 0 0 0 0
1 1 1 1 1 1 1 1 1 1 1 1 1 1 1 1 1 1 1 1 1 1 1 1 1 0 0 0 0 0 0 0 0 0 0 0 0 0 0 0 0 0 0
1 1 1 1 1 1 1 1 1 1 1 1 1 1 1 1 1 1 1 1 1 1 1 1 1 1 0 0 0 0 0 0 0 0 0 0 0 0 0 0 0 0 0
1 1 1 1 1 1 1 1 1 1 1 1 1 1 1 1 1 1 1 1 1 1 1 1 1 1 1 0 0 0 0 0 0 0 0 0 0 0 0 0 0 0 0
1 1 1 1 1 1 1 1 1 1 1 1 1 1 0 0 0 1 1 1 1 1 1 1 1 1 0 0 0 0 0 0 0 0 0 0 0 0 0 0 0 0 0
1 1 1 1 1 1 1 1 1 1 1 1 1 1 1 0 0 0 0 0 0 0 0 0 0 0 0 0 0 0 0 0 0 0 0 0 0 0 0 0 0 0 0
1 1 1 1 1 1 1 1 1 1 1 1 1 1 1 0 0 0 0 0 0 0 0 0 0 0 0 0 0 0 0 0 0 0 0 0 0 0 0 0 0 0 0
1 1 1 1 1 1 1 1 1 1 1 1 1 1 1 0 0 0 0 0 0 0 0 0 0 0 0 0 0 0 0 0 0 0 0 0 0 0 0 0 0 0 0
1 1 1 1 1 1 1 1 1 1 1 1 1 1 0 0 0 0 0 0 0 0 0 0 0 0 0 0 0 0 0 0 0 0 0 0 0 0 0 0 0 0 0
Wind_Speed
9 7 7 8 7 7 6 5 4 3 1 1 1 1 1 1 1 2 2 2 2 2 2 2 1 1 2 2 2 1 1 1 1 1 1 2 2 2 2 2 1 2 2
10 9 7 7 7 7 7 5 4 3 2 1 0 0 1 1 2 2 2 2 1 2 1 1 1 1 1 1 2 2 2 1 0 1 1 1 1 1 2 2 2 2 2
11 10 8 6 7 8 7 5 4 4 2 2 1 1 1 1 1 1 2 2 1 2 2 3 2 2 1 1 1 1 2 2 1 1 0 1 0 1 1 2 2 2 1
11 10 9 7 7 8 7 6 5 4 3 2 1 1 1 1 1 1 2 2 1 1 1 2 2 2 2 2 2 2 2 2 2 1 1 1 0 1 1 1 1 2 2
10 10 10 8 8 8 8 7 5 4 3 2 1 0 1 1 1 1 1 1 1 1 1 2 2 2 2 2 3 2 2 2 2 2 2 1 1 1 1 1 1 1 2
10 10 10 9 8 8 8 7 6 4 4 2 2 1 1 1 1 1 1 1 1 1 2 1 1 1 1 1 1 1 2 2 3 2 2 1 1 1 1 1 2 1 1
9 9 9 9 7 7 7 7 7 5 4 3 2 1 1 1 1 0 0 0 1 1 1 1 1 1 1 1 1 1 1 2 2 2 2 2 2 2 1 1 2 2 1
8 8 8 8 8 7 7 7 7 5 4 3 2 2 1 1 1 0 0 1 1 1 1 1 1 1 1 1 1 1 1 1 2 2 2 3 3 3 2 1 1 2 2
8 9 8 7 8 7 6 7 6 5 4 4 3 3 2 1 1 0 1 1 1 1 2 1 1 1 1 1 1 1 1 1 1 2 2 2 2 2 2 2 1 1 2
9 8 7 6 6 6 7 6 6 5 4 4 3 3 2 2 1 1 2 2 2 2 2 2 1 1 1 1 1 1 1 1 1 1 2 2 3 3 2 3 2 1 1
8 8 7 6 5 6 6 6 6 6 5 4 2 2 3 2 2 1 2 2 2 2 2 2 1 1 1 1 1 1 1 1 2 2 2 2 3 3 3 3 2 2 1
7 8 8 7 6 5 5 5 5 6 5 5 3 3 3 2 2 1 1 1 1 1 1 1 1 1 1 1 1 2 2 2 2 2 2 3 2 2 3 3 3 2 2
7 7 7 6 6 6 5 4 4 4 5 5 4 3 2 2 2 1 1 1 1 0 0 0 0 1 1 1 1 2 2 2 2 2 2 2 2 3 3 3 3 3 3
7 6 6 7 6 5 5 4 3 4 4 4 4 3 2 1 1 1 0 1 1 0 0 1 1 1 1 1 2 2 2 2 2 2 3 2 2 2 3 3 3 3 3
6 7 6 6 5 5 4 4 3 3 4 3 3 2 2 1 1 1 1 1 0 0 1 1 1 1 1 2 2 3 3 2 3 3 3 3 2 3 2 3 2 2 2
6 6 6 6 5 4 4 3 3 3 3 2 3 2 2 2 2 1 1 1 1 1 1 1 1 2 2 3 3 2 3 3 3 3 3 3 1 2 2 3 3 2 2
5 5 5 5 4 4 3 3 3 4 3 2 2 2 2 2 1 1 2 2 2 2 2 2 1 1 2 3 3 3 2 3 2 2 3 4 4 3 2 2 3 3 4
5 4 4 5 4 4 3 2 3 3 3 2 2 2 1 1 1 1 1 1 1 1 1 1 2 1 2 3 3 3 2 2 2 2 2 1 2 4 3 3 3 3 4
4 4 3 4 4 4 4 3 2 3 2 2 2 1 1 1 0 1 1 1 1 1 1 1 1 2 2 3 3 3 2 2 2 2 2 2 2 4 4 3 4 4 4
4 3 3 4 4 3 3 2 1 2 2 1 1 1 1 1 0 0 0 1 1 1 1 1 1 1 2 3 3 3 2 2 2 1 1 3 2 4 4 3 3 5 5
3 3 3 3 3 2 3 2 1 1 1 2 1 1 1 1 1 1 0 0 1 1 1 1 1 0 0 2 3 3 2 3 2 2 1 2 2 3 4 5 4 6 6
3 2 2 3 3 3 2 1 1 1 2 2 2 1 2 2 1 1 1 1 1 1 1 1 1 0 0 1 2 2 2 3 3 2 2 2 2 4 5 5 6 8 7
3 1 2 3 2 2 2 1 1 1 1 2 2 2 1 1 1 2 2 2 1 1 1 1 1 1 1 1 2 3 4 4 3 3 4 5 6 7 6 6 8 6 4
2 1 1 2 2 2 2 1 2 1 2 2 1 2 2 2 2 1 1 1 1 1 1 1 1 0 1 2 2 2 3 3 3 3 5 6 7 7 6 5 4 3 3
2 1 0 1 2 2 2 1 1 1 2 2 2 2 2 1 1 1 0 0 0 0 0 1 1 1 2 2 3 3 3 4 4 4 4 3 3 3 3 3 3 2 2
1 1 0 0 1 2 2 1 2 2 2 2 2 2 2 2 2 1 1 3 2 3 2 0 1 1 0 2 3 4 5 6 5 4 4 3 3 3 3 3 3 3 3
Wind_Direction
131 128 130 125 122 117 115 112 109 102 92 84 122 139 129 123 111 107 85 65 21 7 358 1 6 26 40 1 353 328 292 263 279 288 241 201 196 191 173 166 162 159 174
137 135 130 129 128 122 121 122 121 124 132 124 118 140 119 128 98 77 90 76 41 358 10 24 356 23 54 359 347 333 324 303 281 267 273 223 200 243 177 160 172 180 183
144 141 140 140 136 133 137 139 136 132 136 130 134 107 112 78 83 101 93 76 52 32 10 20 3 358 5 23 333 343 314 310 297 281 306 298 265 265 178 190 168 167 160
144 145 147 151 149 142 140 132 134 135 135 132 94 98 122 113 98 103 101 105 76 48 35 25 11 3 9 28 355 21 333 328 309 315 308 264 19 310 303 266 181 184 173
146 148 150 155 151 149 145 139 134 133 135 141 134 136 75 107 115 108 114 130 134 96 45 47 24 12 13 26 12 25 2 348 338 325 319 321 312 294 251 283 274 231 192
145 147 148 149 149 148 144 141 138 139 145 154 148 138 96 77 71 82 110 142 108 81 61 62 25 21 4 20 24 10 2 350 347 336 338 336 322 303 281 262 276 257 213
143 141 142 144 147 149 145 141 140 146 151 158 156 139 116 116 80 357 116 21 86 94 76 44 30 8 13 18 16 14 3 346 335 337 327 321 319 306 300 272 278 287 255
142 140 145 148 152 150 144 137 141 149 152 150 146 130 134 156 107 328 4 15 2 80 106 109 76 41 13 3 14 356 355 349 326 330 335 321 321 326 327 299 290 298 292
144 140 138 147 148 147 143 138 138 144 150 153 150 144 134 103 64 42 49 23 13 41 54 59 55 37 19 355 350 335 334 350 327 327 328 310 307 309 314 314 310 295 295
149 139 139 141 144 148 142 135 139 149 148 144 159 147 148 149 115 73 60 48 40 33 30 20 33 30 18 355 314 327 318 311 306 294 316 316 312 310 306 311 317 307 280
145 140 141 143 136 136 133 137 133 136 136 131 132 131 138 138 129 106 73 56 43 36 27 4 3 21 6 356 351 317 313 301 303 301 305 299 300 314 320 319 317 311 311
138 136 137 136 136 124 121 126 136 140 135 131 131 124 123 119 115 104 93 74 59 66 59 17 358 354 4 4 348 322 329 321 310 305 311 305 303 306 299 303 296 291 286
122 121 120 115 104 98 97 104 127 124 120 124 126 121 116 119 126 118 93 77 46 57 60 101 40 335 338 332 324 316 318 317 312 317 310 297 304 298 293 284 285 288 291
117 118 115 109 104 103 98 93 90 104 113 116 118 114 116 112 108 104 115 90 44 14 358 354 337 322 324 323 335 330 308 304 311 317 306 296 290 285 290 292 282 286 296
126 121 115 112 116 112 109 111 107 95 98 111 115 108 102 86 75 59 50 48 337 343 348 315 316 307 300 333 350 320 308 317 318 316 309 303 305 312 297 301 312 304 299
126 119 115 116 116 118 114 104 98 91 96 98 93 90 84 75 64 51 42 26 18 6 347 333 330 323 330 9 13 340 320 319 317 318 317 309 308 304 272 275 286 292 271
124 117 123 129 127 125 119 110 109 106 105 98 82 80 79 76 62 28 33 29 24 13 349 344 349 360 348 357 350 332 310 307 307 306 309 312 333 350 330 291 274 268 260
124 125 137 138 138 130 129 119 122 123 125 126 116 93 88 82 77 72 37 7 1 326 323 338 347 349 349 352 327 322 297 291 289 288 296 314 329 329 332 303 291 270 268
115 126 142 141 136 142 144 144 152 141 138 134 130 114 106 99 93 76 16 350 336 322 311 331 339 357 358 356 347 336 299 292 304 322 355 346 350 350 337 316 301 295 290
101 110 127 131 130 139 135 140 145 145 133 128 123 124 155 146 164 140 250 298 297 295 292 337 348 20 8 1 6 341 298 307 317 333 9 13 13 351 330 301 297 294 293
88 108 130 129 127 124 121 138 158 147 134 132 132 153 191 206 203 178 189 261 278 278 294 302 294 325 2 360 1 347 321 309 308 317 331 3 9 344 313 300 287 280 288
92 87 109 104 110 116 117 129 123 118 133 150 151 178 192 223 208 191 225 228 246 260 257 259 260 267 92 11 336 326 312 317 329 330 333 354 346 321 306 296 290 295 297
99 114 117 117 120 125 128 154 143 150 165 170 178 192 195 189 202 218 228 229 230 251 262 305 335 340 14 26 353 336 330 326 319 318 321 314 301 296 287 275 286 293 285
70 71 102 139 133 131 126 149 151 161 177 186 203 207 197 195 199 222 226 239 264 295 339 346 329 0 44 23 6 345 334 331 320 317 309 297 286 284 284 287 285 273 280
57 72 144 148 124 119 131 150 149 172 182 194 207 221 204 195 196 192 312 217 250 145 240 326 334 357 5 344 329 320 320 325 335 319 294 286 284 293 298 297 292 289 293
64 70 72 78 129 135 150 159 175 175 182 195 209 231 217 192 209 161 87 44 83 119 114 90 339 28 27 311 325 332 324 314 314 306 291 300 305 314 317 316 315 317 322